Regional Weather Roundup
Issued by NWS

Home | Current Version | Previous Version | Text Only | Print | Product List | Glossary On
Versions: 1 2 3 4 5 6 7 8 9 10 11 12 13 14 15 16 17 18 19 20 21 22 23 24 25 26 27 28 29 30 31 32 33 34 35 36 37 38 39 40 41 42 43 44 45 46 47
176
ASUS42 KKEY 100610
RWRKEY

FLORIDA REGIONAL WEATHER ROUNDUP FOR THE FLORIDA KEYS
NATIONAL WEATHER SERVICE KEY WEST FLORIDA
100 AM EST WED FEB 10 2016

...SOUTH FLORIDA AND THE KEYS...

CITY           SKY/WX    TMP DP  RH WIND       PRES   REMARKS
FORT MYERS     MOCLDY    59  45  59 NW12      30.11S
SW REGIONAL AP CLOUDY    60  46  59 NW10G20   30.11S
NAPLES         CLOUDY    62  47  57 NW21G26   30.11S
MIAMI          CLOUDY    60  52  74 SW3       30.11F
WEST KENDALL   CLOUDY    57  53  86 S5        30.11F
HOMESTEAD      CLOUDY    57  53  86 S3        30.11S
MARATHON       CLOUDY    64  56  75 W6        30.12S
BOCA CHICA NAS CLOUDY    65  58  78 NW7       30.12F
KEY WEST INTL  CLOUDY    66  60  81 NW7       30.13S

...INTERNATIONAL WEATHER...

CITY           SKY/WX    TMP DP  RH WIND       PRES   REMARKS
NASSAU BAHAMAS MOCLDY    68  57  68 W9G23     30.12S
CANCUN MEXICO  PTCLDY    59  57  94 NW6       30.23F
COZUMEL MEXICO PTCLDY    64  57  77 NW13      30.24F

ADJACENT COASTAL WATERS...

STATION/POSITION TIME  SKY/WX   TEMP    WIND        PRES    WAVE
                                AIR SEA DIR/SP/G            HT/PER
                 (UTC)          (F)     (DEG/KT/KT) (MB)    (FT/S)
PULASKI SHOAL LI 0500                                 N/A
SAND KEY         0550            67     320/ 14/ 16 1020.3F
SOMBRERO KEY     NOT AVBL
LONG KEY         0500            64 65  320/  9/ 10 1020.9R
MOLASSES REEF    0600            64 74  310/  6/  8 1019.6F
FOWEY ROCKS      NOT AVBL

$$




USA.gov is the U.S. government's official web portal to all federal, state and local government web resources and services.